Hourly Weather Myrnohrad (Dymytrov)

Today, 1 October, Thursday

Time Temperature Precipitation Wind Pressure Humidity
00:00 +15°C° 0 mm 9 mps 741 mmHg 43%
01:00 +15°C° 0 mm 8 mps 742 mmHg 45%
02:00 +13°C° 0 mm 8 mps 742 mmHg 49%
03:00 +13°C° 0 mm 8 mps 742 mmHg 52%
04:00 +13°C° 0 mm 8 mps 742 mmHg 55%
05:00 +12°C° 0 mm 7 mps 743 mmHg 58%
06:00 +13°C° 0 mm 8 mps 743 mmHg 56%
07:00 +15°C° 0 mm 8 mps 743 mmHg 54%
08:00 +15°C° 0 mm 9 mps 743 mmHg 51%
09:00 +16°C° 0 mm 9 mps 743 mmHg 47%
10:00 +17°C° 0 mm 9 mps 743 mmHg 43%
11:00 +18°C° 0 mm 9 mps 743 mmHg 39%
12:00 +20°C° 0 mm 8 mps 743 mmHg 36%
13:00 +20°C° 0 mm 8 mps 743 mmHg 34%
14:00 +21°C° 0 mm 7 mps 743 mmHg 31%
15:00 +20°C° 0.1 mm 6 mps 743 mmHg 34%
16:00 +19°C° 0.1 mm 4 mps 743 mmHg 37%
17:00 +19°C° 0.1 mm 3 mps 743 mmHg 40%
18:00 +17°C° 0.1 mm 5 mps 743 mmHg 43%
19:00 +16°C° 0.1 mm 6 mps 743 mmHg 46%
20:00 +16°C° 0.1 mm 7 mps 743 mmHg 49%
21:00 +16°C° 0.1 mm 7 mps 743 mmHg 46%
22:00 +16°C° 0.1 mm 7 mps 743 mmHg 43%
23:00 +17°C° 0.1 mm 7 mps 743 mmHg 40%

Tomorrow, 2 October, Friday

Time Temperature Precipitation Wind Pressure Humidity
00:00 +16°C° 0 mm 7 mps 743 mmHg 43%
01:00 +16°C° 0 mm 7 mps 744 mmHg 45%
02:00 +15°C° 0 mm 7 mps 744 mmHg 48%
03:00 +15°C° 0 mm 6 mps 744 mmHg 49%
04:00 +14°C° 0 mm 6 mps 744 mmHg 50%
05:00 +14°C° 0 mm 6 mps 744 mmHg 52%
06:00 +14°C° 0 mm 6 mps 744 mmHg 52%
07:00 +15°C° 0 mm 6 mps 744 mmHg 52%
08:00 +15°C° 0 mm 6 mps 745 mmHg 51%
09:00 +16°C° 0 mm 6 mps 745 mmHg 49%
10:00 +17°C° 0 mm 6 mps 745 mmHg 47%
11:00 +17°C° 0 mm 5 mps 745 mmHg 45%
12:00 +19°C° 0 mm 5 mps 745 mmHg 44%
13:00 +20°C° 0 mm 5 mps 745 mmHg 42%
14:00 +21°C° 0 mm 5 mps 745 mmHg 41%
15:00 +21°C° 0 mm 4 mps 746 mmHg 43%
16:00 +20°C° 0 mm 4 mps 746 mmHg 44%
17:00 +19°C° 0 mm 3 mps 746 mmHg 46%
18:00 +19°C° 0 mm 4 mps 746 mmHg 48%
19:00 +18°C° 0 mm 4 mps 747 mmHg 49%
20:00 +18°C° 0 mm 4 mps 747 mmHg 51%
21:00 +17°C° 0 mm 4 mps 747 mmHg 57%
22:00 +16°C° 0 mm 3 mps 747 mmHg 63%
23:00 +14°C° 0 mm 3 mps 747 mmHg 68%

Day after tomorrow, 3 October, Saturday

Time Temperature Precipitation Wind Pressure Humidity
00:00 +13°C° 0.2 mm 3 mps 747 mmHg 71%
01:00 +13°C° 0.2 mm 3 mps 747 mmHg 74%
02:00 +13°C° 0.2 mm 3 mps 748 mmHg 77%
03:00 +13°C° 0.1 mm 3 mps 748 mmHg 79%
04:00 +13°C° 0.1 mm 3 mps 748 mmHg 81%
05:00 +12°C° 0.1 mm 3 mps 748 mmHg 83%
06:00 +13°C° 0 mm 4 mps 748 mmHg 78%
07:00 +14°C° 0 mm 4 mps 748 mmHg 73%
08:00 +15°C° 0 mm 5 mps 749 mmHg 68%
09:00 +17°C° 0 mm 5 mps 749 mmHg 61%
10:00 +19°C° 0 mm 5 mps 749 mmHg 54%
11:00 +20°C° 0 mm 5 mps 749 mmHg 47%
12:00 +21°C° 0 mm 4 mps 749 mmHg 44%
13:00 +21°C° 0 mm 4 mps 749 mmHg 41%
14:00 +22°C° 0 mm 3 mps 749 mmHg 38%
15:00 +21°C° 0 mm 3 mps 749 mmHg 39%
16:00 +20°C° 0 mm 3 mps 749 mmHg 40%
17:00 +19°C° 0 mm 3 mps 749 mmHg 42%
18:00 +18°C° 0 mm 3 mps 749 mmHg 43%
19:00 +17°C° 0 mm 3 mps 749 mmHg 45%
20:00 +14°C° 0 mm 4 mps 750 mmHg 47%
21:00 +14°C° 0 mm 4 mps 750 mmHg 49%
22:00 +13°C° 0 mm 3 mps 750 mmHg 51%
23:00 +12°C° 0 mm 3 mps 750 mmHg 52%

4 October, Sunday

Time Temperature Precipitation Wind Pressure Humidity
00:00 +12°C° 0 mm 3 mps 750 mmHg 54%
01:00 +12°C° 0 mm 3 mps 750 mmHg 55%
02:00 +11°C° 0 mm 3 mps 750 mmHg 57%
03:00 +12°C° 0 mm 2 mps 750 mmHg 56%
04:00 +12°C° 0 mm 2 mps 750 mmHg 56%
05:00 +12°C° 0 mm 2 mps 750 mmHg 55%
06:00 +12°C° 0 mm 3 mps 750 mmHg 49%
07:00 +14°C° 0 mm 3 mps 750 mmHg 43%
08:00 +17°C° 0 mm 3 mps 751 mmHg 37%
09:00 +19°C° 0 mm 4 mps 751 mmHg 34%
10:00 +20°C° 0 mm 4 mps 751 mmHg 32%
11:00 +22°C° 0 mm 5 mps 751 mmHg 30%
12:00 +23°C° 0 mm 5 mps 751 mmHg 26%
13:00 +23°C° 0 mm 5 mps 751 mmHg 23%
14:00 +23°C° 0 mm 5 mps 751 mmHg 19%
15:00 +22°C° 0 mm 4 mps 751 mmHg 19%
16:00 +20°C° 0 mm 4 mps 751 mmHg 19%
17:00 +19°C° 0 mm 3 mps 751 mmHg 19%
18:00 +18°C° 0 mm 3 mps 751 mmHg 21%
19:00 +16°C° 0 mm 3 mps 751 mmHg 24%
20:00 +14°C° 0 mm 3 mps 751 mmHg 27%
21:00 +14°C° 0 mm 3 mps 752 mmHg 26%
22:00 +14°C° 0 mm 3 mps 752 mmHg 25%
23:00 +13°C° 0 mm 3 mps 752 mmHg 25%

5 October, Monday

Time Temperature Precipitation Wind Pressure Humidity
00:00 +13°C° 0 mm 3 mps 752 mmHg 24%
01:00 +12°C° 0 mm 3 mps 752 mmHg 24%
02:00 +12°C° 0 mm 3 mps 752 mmHg 24%
03:00 +12°C° 0 mm 4 mps 752 mmHg 25%
04:00 +11°C° 0 mm 4 mps 752 mmHg 25%
05:00 +11°C° 0 mm 4 mps 752 mmHg 25%
06:00 +13°C° 0 mm 4 mps 753 mmHg 24%
07:00 +14°C° 0 mm 5 mps 753 mmHg 23%
08:00 +16°C° 0 mm 5 mps 753 mmHg 22%
09:00 +19°C° 0 mm 5 mps 753 mmHg 21%
10:00 +20°C° 0 mm 6 mps 753 mmHg 19%
11:00 +22°C° 0 mm 6 mps 753 mmHg 17%
12:00 +23°C° 0 mm 6 mps 753 mmHg 16%
13:00 +23°C° 0 mm 5 mps 752 mmHg 15%
14:00 +25°C° 0 mm 5 mps 752 mmHg 15%
15:00 +22°C° 0 mm 5 mps 752 mmHg 16%
16:00 +20°C° 0 mm 4 mps 752 mmHg 18%
17:00 +19°C° 0 mm 3 mps 752 mmHg 20%
18:00 +18°C° 0 mm 3 mps 752 mmHg 22%
19:00 +17°C° 0 mm 3 mps 752 mmHg 24%
20:00 +14°C° 0 mm 4 mps 752 mmHg 26%
21:00 +14°C° 0 mm 4 mps 752 mmHg 31%
22:00 +14°C° 0 mm 4 mps 752 mmHg 36%
23:00 +13°C° 0 mm 4 mps 752 mmHg 41%

6 October, Tuesday

Time Temperature Precipitation Wind Pressure Humidity
00:00 +13°C° 0 mm 4 mps 752 mmHg 44%
01:00 +12°C° 0 mm 4 mps 752 mmHg 47%
02:00 +12°C° 0 mm 4 mps 752 mmHg 50%
03:00 +12°C° 0 mm 4 mps 752 mmHg 51%
04:00 +11°C° 0 mm 4 mps 752 mmHg 52%
05:00 +11°C° 0 mm 4 mps 752 mmHg 54%
06:00 +12°C° 0 mm 4 mps 752 mmHg 49%
07:00 +14°C° 0 mm 5 mps 752 mmHg 43%
08:00 +16°C° 0 mm 5 mps 752 mmHg 38%
09:00 +17°C° 0 mm 5 mps 752 mmHg 32%
10:00 +20°C° 0 mm 6 mps 752 mmHg 26%
11:00 +22°C° 0 mm 6 mps 752 mmHg 21%
12:00 +22°C° 0 mm 6 mps 751 mmHg 19%
13:00 +23°C° 0 mm 6 mps 751 mmHg 18%
14:00 +23°C° 0 mm 6 mps 751 mmHg 17%
15:00 +22°C° 0 mm 5 mps 751 mmHg 20%
16:00 +20°C° 0 mm 4 mps 750 mmHg 22%
17:00 +18°C° 0 mm 3 mps 750 mmHg 24%
18:00 +18°C° 0 mm 4 mps 750 mmHg 28%
19:00 +17°C° 0 mm 4 mps 750 mmHg 31%
20:00 +15°C° 0 mm 4 mps 750 mmHg 35%
21:00 +14°C° 0 mm 4 mps 750 mmHg 37%
22:00 +14°C° 0 mm 4 mps 750 mmHg 40%
23:00 +13°C° 0 mm 4 mps 750 mmHg 42%
Show more